Regional Weather Roundup
Issued by NWS

Home | Current Version | Previous Version | Graphics & Text | Print | Product List | Glossary On
Versions: 1 2 3 4 5 6 7 8 9 10 11 12 13 14 15 16 17 18 19 20 21 22 23 24 25 26 27 28 29 30 31 32 33 34 35 36 37 38 39 40 41 42 43 44 45 46 47 48 49 50
839
ASUS43 KBIS 082210
RWRND

NORTH DAKOTA REGIONAL WEATHER ROUNDUP
NATIONAL WEATHER SERVICE BISMARCK ND
400 PM CST THU DEC 08 2016

NOTE: "FAIR" INDICATES FEW OR NO CLOUDS BELOW 12,000 FEET WITH NO
SIGNIFICANT WEATHER AND/OR OBSTRUCTIONS TO VISIBILITY.


NDZ001>003-009>011-017-082300-
NORTHWEST NORTH DAKOTA

CITY           SKY/WX    TMP DP  RH WIND       PRES   REMARKS
WILLISTON      CLEAR     -2 -10  69 W8        30.63F WCI -17
MINOT          PTCLDY     1  -6  72 W16       30.60S WCI -19
MINOT AFB      PTCLDY    -1  -8  74 NW14      30.59S WCI -21
$$

NDZ018>021-031>035-040>046-082300-
SOUTHWEST NORTH DAKOTA

CITY           SKY/WX    TMP DP  RH WIND       PRES   REMARKS
BISMARCK       CLOUDY     4  -3  73 NW14      30.63S WCI -14
DICKINSON      CLEAR     -2  -8  76 W14       30.53S WCI -21
GARRISON         N/A     -1  -8  72 NW12      30.60R WCI -18
HETTINGER ARPT CLOUDY     1  -5  75 NW9       30.55S WCI -14
$$

NDZ004>008-012>016-024-026-027-054-082300-
NORTHEAST NORTH DAKOTA

CITY           SKY/WX    TMP DP  RH WIND       PRES   REMARKS
GRAND FORKS    LGT SNOW  13   8  81 NW15      30.57S WCI  -3
GRND FRKS AFB  CLOUDY    12   6  76 N13       30.57R WCI  -3
DEVILS LAKE    PTCLDY     2  -3  80 NW17      30.56  WCI -18
$$

NDZ022-023-025-028>030-036>039-047>053-082300-
SOUTHEAST NORTH DAKOTA

CITY           SKY/WX    TMP DP  RH WIND       PRES   REMARKS
FARGO          LGT SNOW  15   8  73 NW16      30.57R WCI  -1
JAMESTOWN      MOCLDY     2  -4  76 NW17      30.58S WCI -18
$$





USA.gov is the U.S. government's official web portal to all federal, state and local government web resources and services.